"2016-02-04 00:00:00",1343451,6.602,322.4,6.104,1.274,-0.257,97.73267,-6.475,-5.058,28.81,0,109.5,13.34,-5.75,284.4
"2016-02-04 00:00:30",1343452,7.144,322.3,6.654,1.262,-0.188,97.72502,-6.494,-5.076,28.46,0,109.5,13.34,-5.77,284.3
"2016-02-04 00:01:00",1343453,7.21,323.5,6.312,1.147,0.401,97.72417,-6.496,-5.127,28.2,0,109.5,13.33,-5.77,285.5
"2016-02-04 00:01:30",1343454,7.006,334.3,6.909,1.15,0.252,97.71909,-6.509,-5.107,27.97,0,109.5,13.34,-5.78,296.3
"2016-02-04 00:02:00",1343455,6.258,332.2,7.454,1.228,0.288,97.70719,-6.54,-5.144,27.89,0,109.5,13.34,-5.81,294.2
"2016-02-04 00:02:30",1343456,6.067,334.3,6.292,1.189,0.219,97.69389,-6.573,-5.146,27.99,0,109.5,13.34,-5.84,296.3
"2016-02-04 00:03:00",1343457,5.84,333.6,6.173,1.159,-0.055,97.69021,-6.583,-5.155,28.07,0,109.5,13.35,-5.85,295.6
"2016-02-04 00:03:30",1343458,6.269,329.9,7.481,1.245,-0.048,97.69021,-6.583,-5.207,28.1,0,109.5,13.34,-5.85,291.9
"2016-02-04 00:04:00",1343459,6.394,334.5,6.545,1.256,0.362,97.69048,-6.582,-5.164,28.07,0,109.5,13.35,-5.85,296.5
"2016-02-04 00:04:30",1343460,6.804,334.1,6.892,1.154,0.21,97.69073,-6.581,-5.198,28.12,0,109.5,13.35,-5.85,296.1
"2016-02-04 00:05:00",1343461,6.775,335.4,6.683,1.315,0.125,97.68692,-6.591,-5.204,28.04,0,109.5,13.35,-5.86,297.4
"2016-02-04 00:05:30",1343462,7.26,332.4,6.372,1.224,0.111,97.68177,-6.604,-5.214,28.02,0,109.5,13.35,-5.88,294.4
"2016-02-04 00:06:00",1343463,6.769,332.7,6.225,1.117,0.139,97.68506,-6.596,-5.255,28.21,0,109.4,13.36,-5.87,294.7
"2016-02-04 00:06:30",1343464,7.224,329.8,6.164,1.185,0.732,97.67849,-6.613,-5.26,28.2,0,109.5,13.36,-5.88,291.8
"2016-02-04 00:07:00",1343465,7.365,328.2,6.311,1.187,0.825,97.67505,-6.621,-5.229,27.66,0,109.5,13.36,-5.89,290.2
"2016-02-04 00:07:30",1343466,7.566,327.8,6.036,1.172,0.669,97.67892,-6.611,-5.239,27.24,0,109.5,13.36,-5.88,289.8
"2016-02-04 00:08:00",1343467,7.487,327.9,6.254,1.121,0.706,97.67831,-6.613,-5.281,27.14,0,109.5,13.36,-5.88,289.9
"2016-02-04 00:08:30",1343468,7.254,326.5,6.257,1.178,0.988,97.66554,-6.646,-5.295,27.02,0,109.5,13.36,-5.92,288.5
"2016-02-04 00:09:00",1343469,7.407,323.8,6.653,1.263,0.958,97.66401,-6.649,-5.288,27,0,109.5,13.36,-5.92,285.8
"2016-02-04 00:09:30",1343470,7.248,327.1,6.144,1.252,1.347,97.65575,-6.67,-5.284,26.95,0,109.5,13.36,-5.94,289.1
"2016-02-04 00:10:00",1343471,7.559,328.5,6.32,1.204,1.335,97.65545,-6.671,-5.314,26.84,0,109.5,13.36,-5.94,290.5
"2016-02-04 00:10:30",1343472,7.318,327.7,6.612,1.194,0.876,97.65488,-6.673,-5.323,27.06,0,109.5,13.36,-5.94,289.7
"2016-02-04 00:11:00",1343473,7.3,327.2,5.973,1.128,1.296,97.64299,-6.703,-5.358,26.99,0,109.5,13.37,-5.97,289.2
"2016-02-04 00:11:30",1343474,7.16,328.2,6.134,1.168,1.507,97.63421,-6.725,-5.374,26.66,0,109.5,13.37,-6.00,290.2
"2016-02-04 00:12:00",1343475,7.253,327.7,6.337,1.294,1.006,97.62175,-6.757,-5.358,26.56,0,109.5,13.37,-6.03,289.7
"2016-02-04 00:12:30",1343476,7.544,326,6.117,1.278,1.086,97.62147,-6.758,-5.379,26.76,0,109.5,13.37,-6.03,288.0
"2016-02-04 00:13:00",1343477,7.337,327.1,7.568,1.196,1.637,97.61977,-6.762,-5.413,26.8,0,109.5,13.37,-6.03,289.1
"2016-02-04 00:13:30",1343478,8.12,324.7,6.252,1.208,0.838,97.60725,-6.794,-5.412,26.82,0,109.5,13.37,-6.07,286.7
"2016-02-04 00:14:00",1343479,7.397,326.6,6.146,1.198,1.371,97.59745,-6.819,-5.438,27.04,0,109.5,13.37,-6.09,288.6
"2016-02-04 00:14:30",1343480,7.419,327,6.033,1.246,1.421,97.60435,-6.801,-5.434,26.99,0,109.5,13.38,-6.07,289.0
"2016-02-04 00:15:00",1343481,7.307,330.2,6.5,1.178,1.215,97.60573,-6.798,-5.468,26.84,0,109.5,13.38,-6.07,292.2
"2016-02-04 00:15:30",1343482,7.631,330.1,6.368,1.155,1.052,97.5994,-6.814,-5.499,26.9,0,109.5,13.38,-6.09,292.1
"2016-02-04 00:16:00",1343483,7.527,327.9,6.4,1.216,1.451,97.58887,-6.841,-5.473,26.96,0,109.5,13.38,-6.11,289.9
"2016-02-04 00:16:30",1343484,7.779,329.2,6.058,1.13,1.498,97.57977,-6.864,-5.515,26.94,0,109.4,13.38,-6.14,291.2
"2016-02-04 00:17:00",1343485,7.413,329.7,6.034,1.189,1.251,97.58308,-6.855,-5.495,26.94,0,109.4,13.38,-6.13,291.7
"2016-02-04 00:17:30",1343486,7.294,330.6,6.495,1.23,0.969,97.58582,-6.848,-5.525,26.88,0,109.4,13.38,-6.12,292.6
"2016-02-04 00:18:00",1343487,7.559,327.2,6.155,1.22,1.198,97.57166,-6.884,-5.534,26.87,0,109.4,13.38,-6.16,289.2
"2016-02-04 00:18:30",1343488,7.566,329.4,6.174,1.171,1.405,97.55552,-6.925,-5.565,26.94,0,109.4,13.39,-6.20,291.4
"2016-02-04 00:19:00",1343489,7.629,326.3,6.218,1.326,1.364,97.55269,-6.933,-5.562,27.04,0,109.4,13.38,-6.21,288.3
"2016-02-04 00:19:30",1343490,7.619,329.6,5.828,1.155,1.359,97.55269,-6.933,-5.554,27.21,0,109.4,13.39,-6.21,291.6
"2016-02-04 00:20:00",1343491,7.27,330.4,6.262,1.197,1.222,97.55155,-6.936,-5.588,27.15,0,109.4,13.39,-6.21,292.4
"2016-02-04 00:20:30",1343492,7.277,329.3,6.25,1.2,0.918,97.53568,-6.976,-5.632,27.1,0,109.4,13.39,-6.25,291.3
"2016-02-04 00:21:00",1343493,7.1,327.6,6.057,1.265,1.57,97.52066,-7.014,-5.616,27.05,0,109.4,13.39,-6.29,289.6
"2016-02-04 00:21:30",1343494,7.498,329,5.576,1.254,1.307,97.52451,-7.004,-5.603,26.95,0,109.4,13.4,-6.28,291.0
"2016-02-04 00:22:00",1343495,7.511,331.5,6.347,1.182,1.366,97.53113,-6.988,-5.625,26.89,0,109.4,13.4,-6.26,293.5
"2016-02-04 00:22:30",1343496,7.154,333.3,6.393,1.18,1.233,97.53693,-6.973,-5.634,26.86,0,109.4,13.4,-6.25,295.3
"2016-02-04 00:23:00",1343497,7.148,331.3,6.562,1.198,1.162,97.53662,-6.974,-5.652,26.82,0,109.4,13.4,-6.25,293.3
"2016-02-04 00:23:30",1343498,7.362,333.3,6.164,1.218,1.436,97.52525,-7.003,-5.688,26.77,0,109.4,13.4,-6.28,295.3
"2016-02-04 00:24:00",1343499,7.518,334.3,5.834,1.221,1.254,97.51659,-7.025,-5.662,26.78,0,109.4,13.4,-6.30,296.3
"2016-02-04 00:24:30",1343500,7.687,334.5,6.263,1.182,0.894,97.51399,-7.031,-5.681,26.92,0,109.4,13.4,-6.30,296.5
"2016-02-04 00:25:00",1343501,7.706,335.2,6.531,1.138,1.465,97.5137,-7.032,-5.705,27,0,109.4,13.41,-6.30,297.2
"2016-02-04 00:25:30",1343502,7.783,333.5,5.878,1.13,1.117,97.51398,-7.031,-5.691,26.91,0,109.4,13.41,-6.30,295.5
"2016-02-04 00:26:00",1343503,7.897,328.8,6.801,1.246,1.3,97.51453,-7.03,-5.721,26.92,0,109.4,13.41,-6.30,290.8
"2016-02-04 00:26:30",1343504,8.25,326.5,6.063,1.206,1.208,97.51389,-7.031,-5.691,26.96,0,109.4,13.41,-6.30,288.5
"2016-02-04 00:27:00",1343505,8.37,326.6,6.222,1.165,1.23,97.50481,-7.054,-5.718,26.97,0,109.4,13.42,-6.33,288.6
"2016-02-04 00:27:30",1343506,8.25,324.1,7.242,1.21,1.089,97.49915,-7.069,-5.756,27.08,0,109.3,13.41,-6.34,286.1
"2016-02-04 00:28:00",1343507,8.22,323.4,6.03,1.281,1.514,97.49773,-7.073,-5.713,27.41,0,109.3,13.42,-6.35,285.4
"2016-02-04 00:28:30",1343508,8.33,319.3,6.124,1.123,1.444,97.49234,-7.086,-5.75,27.81,0,109.3,13.42,-6.36,281.3
"2016-02-04 00:29:00",1343509,7.771,315.5,6.467,1.245,1.057,97.48526,-7.104,-5.743,28.14,0,109.3,13.42,-6.38,277.5
"2016-02-04 00:29:30",1343510,8.03,317.8,6.146,1.201,1.084,97.48385,-7.108,-5.75,28.43,0,109.3,13.42,-6.38,279.8
"2016-02-04 00:30:00",1343511,9.33,317.4,6.353,1.229,1.139,97.48633,-7.102,-5.775,28.45,0,109.3,13.42,-6.37,279.4
"2016-02-04 00:30:30",1343512,9.1,318.7,6.279,1.206,1.705,97.49262,-7.086,-5.79,28.17,0,109.3,13.42,-6.36,280.7
"2016-02-04 00:31:00",1343513,9.13,317.7,6.053,1.215,1.75,97.48674,-7.1,-5.767,27.9,0,109.3,13.42,-6.37,279.7
"2016-02-04 00:31:30",1343514,8.88,320.2,5.999,1.173,1.587,97.4852,-7.104,-5.768,27.65,0,109.3,13.42,-6.38,282.2
"2016-02-04 00:32:00",1343515,8.7,318.2,6.547,1.175,1.472,97.47978,-7.118,-5.811,27.53,0,109.3,13.42,-6.39,280.2
"2016-02-04 00:32:30",1343516,8.62,317.9,6.232,1.154,1.387,97.47553,-7.129,-5.807,27.65,0,109.3,13.43,-6.40,279.9
"2016-02-04 00:33:00",1343517,8.23,320.1,6.375,1.263,1.655,97.48078,-7.116,-5.814,27.7,0,109.3,13.42,-6.39,282.1
"2016-02-04 00:33:30",1343518,8.31,318.3,6.422,1.203,1.743,97.48216,-7.112,-5.796,27.64,0,109.3,13.42,-6.39,280.3
"2016-02-04 00:34:00",1343519,8.28,316.4,6.768,1.195,1.741,97.48271,-7.111,-5.812,27.71,0,109.3,13.42,-6.38,278.4
"2016-02-04 00:34:30",1343520,8.77,312.7,6.296,1.201,1.453,97.48299,-7.11,-5.821,27.6,0,109.3,13.42,-6.38,274.7
"2016-02-04 00:35:00",1343521,8.16,312.4,7.013,1.156,1.396,97.48299,-7.11,-5.834,27.43,0,109.3,13.42,-6.38,274.4
"2016-02-04 00:35:30",1343522,7.874,314.3,7.509,1.185,1.682,97.48299,-7.11,-5.829,27.43,0,109.3,13.42,-6.38,276.3
"2016-02-04 00:36:00",1343523,7.699,309.6,6.659,1.243,1.269,97.48299,-7.11,-5.833,27.55,0,109.3,13.43,-6.38,271.6
"2016-02-04 00:36:30",1343524,8.25,314.7,6.448,1.198,1.188,97.48299,-7.11,-5.833,27.68,0,109.3,13.43,-6.38,276.7
"2016-02-04 00:37:00",1343525,8.43,313.4,6.438,1.172,1.48,97.48242,-7.111,-5.831,27.83,0,109.3,13.43,-6.38,275.4
"2016-02-04 00:37:30",1343526,8.43,320.8,6.482,1.204,1.068,97.4793,-7.119,-5.822,27.85,0,109.3,13.43,-6.39,282.8
"2016-02-04 00:38:00",1343527,8.13,320.5,6.207,1.236,1.709,97.47023,-7.142,-5.835,27.69,0,109.3,13.43,-6.42,282.5
"2016-02-04 00:38:30",1343528,7.9,321.1,5.731,1.218,1.494,97.46542,-7.155,-5.816,27.55,0,109.3,13.44,-6.43,283.1
"2016-02-04 00:39:00",1343529,7.504,320.7,6.297,1.18,1.44,97.46456,-7.157,-5.835,27.49,0,109.3,13.44,-6.43,282.7
"2016-02-04 00:39:30",1343530,7.483,321.2,6.426,1.124,1.351,97.46286,-7.161,-5.856,27.42,0,109.3,13.44,-6.43,283.2
"2016-02-04 00:40:00",1343531,7.212,320.4,6.003,1.231,1.609,97.46478,-7.156,-5.811,27.38,0,109.3,13.44,-6.43,282.4
"2016-02-04 00:40:30",1343532,7.436,321.8,6.38,1.112,1.711,97.4678,-7.149,-5.85,27.35,0,109.3,13.45,-6.42,283.8
"2016-02-04 00:41:00",1343533,7.384,318.7,5.871,1.237,1.476,97.46992,-7.143,-5.827,27.41,0,109.3,13.45,-6.42,280.7
"2016-02-04 00:41:30",1343534,7.204,319.5,6.336,1.209,1.134,97.47462,-7.131,-5.838,27.36,0,109.3,13.45,-6.40,281.5
"2016-02-04 00:42:00",1343535,7.213,319.6,6.226,1.182,1.178,97.47317,-7.135,-5.834,27.34,0,109.3,13.45,-6.41,281.6
"2016-02-04 00:42:30",1343536,6.806,322.2,6.065,1.27,1.504,97.47315,-7.135,-5.846,27.32,0,109.3,13.45,-6.41,284.2
"2016-02-04 00:43:00",1343537,6.66,322.9,6.081,1.238,1.416,97.47337,-7.135,-5.836,27.3,0,109.3,13.45,-6.41,284.9
"2016-02-04 00:43:30",1343538,7.205,323.1,5.92,1.17,1.267,97.47389,-7.133,-5.816,27.32,0,109.3,13.45,-6.41,285.1
"2016-02-04 00:44:00",1343539,7.781,317.1,8.51,1.244,0.864,97.47468,-7.131,-5.819,27.66,0,109.3,13.45,-6.40,279.1
"2016-02-04 00:44:30",1343540,7.617,308,7.373,1.196,0.629,97.4755,-7.129,-5.858,28,0,109.3,13.45,-6.40,270.0
"2016-02-04 00:45:00",1343541,7.481,312.7,7.454,1.189,1.072,97.4744,-7.132,-5.846,28.25,0,109.3,13.45,-6.41,274.7
"2016-02-04 00:45:30",1343542,7.468,303.3,6.332,1.256,0.979,97.47495,-7.13,-5.824,28.34,0,109.3,13.45,-6.40,265.3
"2016-02-04 00:46:00",1343543,6.618,303.3,6.674,1.257,0.932,97.47854,-7.121,-5.841,28.32,0,109.3,13.45,-6.39,265.3
"2016-02-04 00:46:30",1343544,7.228,313.8,7.102,1.209,0.474,97.47424,-7.132,-5.839,28.45,0,109.3,13.45,-6.41,275.8
"2016-02-04 00:47:00",1343545,6.706,311.7,7.287,1.19,0.512,97.4603,-7.168,-5.841,28.5,0,109.3,13.45,-6.44,273.7
"2016-02-04 00:47:30",1343546,5.998,315,7.2,1.353,0.839,97.45066,-7.192,-5.879,28.41,0,109.3,13.45,-6.47,277.0
"2016-02-04 00:48:00",1343547,6.202,319.4,6.151,1.244,0.766,97.44811,-7.199,-5.835,28.36,0,109.3,13.46,-6.47,281.4
"2016-02-04 00:48:30",1343548,6.319,320.6,6.165,1.209,0.492,97.44811,-7.199,-5.86,28.18,0,109.2,13.46,-6.47,282.6
"2016-02-04 00:49:00",1343549,6.703,319.8,6.48,1.137,0.979,97.44811,-7.199,-5.882,28.05,0,109.2,13.46,-6.47,281.8
"2016-02-04 00:49:30",1343550,6.36,319.8,6.086,1.152,0.624,97.44811,-7.199,-5.874,28.05,0,109.2,13.45,-6.47,281.8
"2016-02-04 00:50:00",1343551,6.191,311.3,7.642,1.274,0.566,97.44556,-7.205,-5.902,28.2,0,109.2,13.45,-6.48,273.3
"2016-02-04 00:50:30",1343552,6.031,310.5,6.628,1.229,0.583,97.43393,-7.235,-5.873,28.49,0,109.2,13.45,-6.51,272.5
"2016-02-04 00:51:00",1343553,6.707,319.7,6.443,1.185,0.432,97.42484,-7.258,-5.908,28.54,0,109.2,13.45,-6.53,281.7
"2016-02-04 00:51:30",1343554,6.986,315.2,7.067,1.221,0.385,97.41549,-7.282,-5.936,28.36,0,109.2,13.45,-6.56,277.2
"2016-02-04 00:52:00",1343555,6.542,308.7,7.362,1.39,0.81,97.41463,-7.284,-5.914,28.27,0,109.2,13.46,-6.56,270.7
"2016-02-04 00:52:30",1343556,6.328,317.9,5.839,1.182,0.718,97.41712,-7.278,-5.926,28.28,0,109.2,13.45,-6.55,279.9
"2016-02-04 00:53:00",1343557,6.759,313.3,6.16,1.172,0.552,97.4196,-7.271,-5.952,28.24,0,109.2,13.46,-6.54,275.3
"2016-02-04 00:53:30",1343558,6.952,317.5,6.576,1.269,0.732,97.42374,-7.261,-5.944,28.24,0,109.2,13.46,-6.53,279.5
"2016-02-04 00:54:00",1343559,6.999,301.8,11.15,1.245,0.769,97.42585,-7.255,-5.934,28.26,0,109.2,13.45,-6.53,263.8
"2016-02-04 00:54:30",1343560,7.114,304,10.98,1.187,0.547,97.41898,-7.273,-5.968,28.3,0,109.2,13.46,-6.55,266.0
"2016-02-04 00:55:00",1343561,6.76,311.8,8.74,1.325,0.498,97.41501,-7.283,-5.967,28.44,0,109.2,13.46,-6.56,273.8
"2016-02-04 00:55:30",1343562,6.862,286.6,9.95,1.394,0.49,97.41912,-7.273,-5.974,28.56,0,109.2,13.47,-6.55,248.6
"2016-02-04 00:56:00",1343563,4.967,287.7,8.42,1.425,0.554,97.41714,-7.278,-5.98,29.08,0,109.2,13.47,-6.55,249.7
"2016-02-04 00:56:30",1343564,6.129,282.6,10.45,1.351,0.289,97.41315,-7.288,-5.974,29.3,0,109.2,13.47,-6.56,244.6
"2016-02-04 00:57:00",1343565,6.469,304.3,7.963,1.208,-0.095,97.4077,-7.302,-5.967,29.27,0,109.2,13.47,-6.58,266.3
"2016-02-04 00:57:30",1343566,6.175,305.8,7.03,1.191,0.06,97.40601,-7.306,-5.978,28.92,0,109.2,13.47,-6.58,267.8
"2016-02-04 00:58:00",1343567,6.552,301.9,7.165,1.31,-0.145,97.40601,-7.306,-6.004,28.82,0,109.2,13.47,-6.58,263.9
"2016-02-04 00:58:30",1343568,7.067,306.1,6.81,1.268,0.021,97.40685,-7.304,-6.026,28.82,0,109.2,13.47,-6.58,268.1
"2016-02-04 00:59:00",1343569,7.14,306.5,6.618,1.191,0.352,97.40684,-7.304,-5.989,28.81,0,109.2,13.47,-6.58,268.5
"2016-02-04 00:59:30",1343570,6.995,313.8,6.758,1.214,0.237,97.40232,-7.315,-6.009,28.78,0,109.2,13.48,-6.59,275.8
"2016-02-04 01:00:00",1343571,7.276,301.9,6.482,1.229,0.016,97.39517,-7.333,-6.01,28.82,0,109.2,13.48,-6.61,263.9
"2016-02-04 01:00:30",1343572,7.759,300.9,6.302,1.28,0.169,97.39342,-7.338,-6.026,29,0,109.2,13.48,-6.61,262.9
"2016-02-04 01:01:00",1343573,7.299,306.1,6.556,1.211,0.389,97.39563,-7.332,-6.022,29.07,0,109.2,13.48,-6.61,268.1
"2016-02-04 01:01:30",1343574,7.587,308.1,6.521,1.219,0.419,97.39197,-7.342,-6.033,29.02,0,109.2,13.48,-6.62,270.1
"2016-02-04 01:02:00",1343575,7.09,306.8,6.773,1.238,0.572,97.38795,-7.352,-6.027,28.95,0,109.3,13.48,-6.63,268.8
"2016-02-04 01:02:30",1343576,7.484,312.4,6.607,1.255,0.52,97.38342,-7.363,-6.024,28.87,0,109.2,13.48,-6.64,274.4
"2016-02-04 01:03:00",1343577,7.661,308.4,6.532,1.159,0.547,97.37945,-7.373,-6.065,28.7,0,109.2,13.48,-6.65,270.4
"2016-02-04 01:03:30",1343578,7.544,309,6.632,1.148,0.722,97.37917,-7.374,-6.069,28.58,0,109.2,13.48,-6.65,271.0
"2016-02-04 01:04:00",1343579,6.883,311.2,6.328,1.226,0.716,97.37917,-7.374,-6.07,28.53,0,109.2,13.48,-6.65,273.2
"2016-02-04 01:04:30",1343580,7.715,313.3,6.313,1.304,0.644,97.37917,-7.374,-6.053,28.43,0,109.2,13.48,-6.65,275.3
"2016-02-04 01:05:00",1343581,8.17,311.6,6.418,1.246,1.094,97.37917,-7.374,-6.06,28.33,0,109.2,13.48,-6.65,273.6
"2016-02-04 01:05:30",1343582,8.05,311.3,6.526,1.378,0.741,97.37917,-7.374,-6.075,28.23,0,109.2,13.48,-6.65,273.3
"2016-02-04 01:06:00",1343583,7.389,314.4,6.81,1.203,1.046,97.37917,-7.374,-6.075,28.15,0,109.2,13.48,-6.65,276.4
"2016-02-04 01:06:30",1343584,7.293,312.6,6.507,1.215,1.083,97.37917,-7.374,-6.06,28.06,0,109.2,13.48,-6.65,274.6
"2016-02-04 01:07:00",1343585,7.048,315.5,6.324,1.251,0.873,97.37917,-7.374,-6.074,27.97,0,109.2,13.48,-6.65,277.5
"2016-02-04 01:07:30",1343586,7.88,315.5,5.983,1.209,1.044,97.37917,-7.374,-6.087,27.95,0,109.2,13.48,-6.65,277.5
"2016-02-04 01:08:00",1343587,7.699,314,5.713,1.16,1.262,97.37917,-7.374,-6.062,27.84,0,109.2,13.48,-6.65,276.0
"2016-02-04 01:08:30",1343588,7.718,302.9,6.669,1.234,0.961,97.37917,-7.374,-6.068,27.72,0,109.2,13.48,-6.65,264.9
"2016-02-04 01:09:00",1343589,7.623,310.7,7.321,1.172,1.132,97.37917,-7.374,-6.055,27.82,0,109.2,13.48,-6.65,272.7
"2016-02-04 01:09:30",1343590,7.751,316.4,6.131,1.238,0.892,97.37917,-7.374,-6.024,27.86,0,109.2,13.48,-6.65,278.4
"2016-02-04 01:10:00",1343591,7.548,315,6.389,1.239,1.057,97.37917,-7.374,-6.067,27.66,0,109.2,13.48,-6.65,277.0
"2016-02-04 01:10:30",1343592,7.541,314.8,6.479,1.231,1.199,97.37945,-7.373,-6.055,27.6,0,109.1,13.48,-6.65,276.8
"2016-02-04 01:11:00",1343593,7.579,318.1,6.319,1.268,1.304,97.38002,-7.372,-6.043,27.55,0,109.2,13.48,-6.65,280.1
"2016-02-04 01:11:30",1343594,7.468,319,6.102,1.187,1.283,97.38059,-7.371,-6.038,27.46,0,109.2,13.48,-6.64,281.0
"2016-02-04 01:12:00",1343595,7.195,318.9,6.001,1.191,1.274,97.38284,-7.365,-6.013,27.4,0,109.2,13.48,-6.64,280.9
"2016-02-04 01:12:30",1343596,6.881,318.2,6.243,1.249,1.049,97.38369,-7.363,-6.047,27.34,0,109.2,13.49,-6.64,280.2
"2016-02-04 01:13:00",1343597,7.154,318.4,6.185,1.171,1.324,97.38425,-7.361,-6.04,27.29,0,109.2,13.49,-6.64,280.4
"2016-02-04 01:13:30",1343598,7.094,314.7,6.785,1.243,1.457,97.38789,-7.352,-6.028,27.23,0,109.2,13.49,-6.63,276.7
"2016-02-04 01:14:00",1343599,6.549,309.9,6.124,1.306,1.143,97.39207,-7.341,-6.008,27.34,0,109.2,13.49,-6.62,271.9
"2016-02-04 01:14:30",1343600,6.514,313.3,6.399,1.175,1.133,97.39622,-7.331,-6.002,27.34,0,109.2,13.49,-6.60,275.3
"2016-02-04 01:15:00",1343601,6.819,317.1,6.522,1.119,0.886,97.40398,-7.311,-6.007,27.16,0,109.2,13.49,-6.58,279.1
"2016-02-04 01:15:30",1343602,6.221,316.5,6.457,1.22,0.953,97.407,-7.303,-6.045,27.1,0,109.2,13.49,-6.58,278.5
"2016-02-04 01:16:00",1343603,6.516,319.3,6.033,1.29,1.162,97.4112,-7.293,-6.02,27.09,0,109.2,13.49,-6.57,281.3
"2016-02-04 01:16:30",1343604,7.18,316.1,6.649,1.174,0.795,97.41286,-7.288,-5.991,27.13,0,109.2,13.49,-6.56,278.1
"2016-02-04 01:17:00",1343605,6.933,319.5,6.644,1.249,1.011,97.41228,-7.29,-6.023,27.34,0,109.2,13.5,-6.56,281.5
"2016-02-04 01:17:30",1343606,6.801,323.4,6.45,1.183,0.83,97.41228,-7.29,-6.001,27.23,0,109.2,13.5,-6.56,285.4
"2016-02-04 01:18:00",1343607,6.757,320,6.18,1.177,1.04,97.41283,-7.289,-6.032,27.14,0,109.2,13.5,-6.56,282.0
"2016-02-04 01:18:30",1343608,6.598,317.4,6.183,1.229,1.262,97.41311,-7.288,-6.017,27.06,0,109.2,13.5,-6.56,279.4
"2016-02-04 01:19:00",1343609,6.836,320.5,5.902,1.246,1.115,97.4134,-7.287,-5.981,27.1,0,109.2,13.5,-6.56,282.5
"2016-02-04 01:19:30",1343610,7.268,320.2,6.394,1.22,0.913,97.4148,-7.284,-6.009,27.11,0,109.2,13.5,-6.56,282.2
"2016-02-04 01:20:00",1343611,7.208,322.5,6.087,1.221,1.145,97.41396,-7.286,-6.001,27.14,0,109.2,13.5,-6.56,284.5
"2016-02-04 01:20:30",1343612,6.799,322.8,6.102,1.246,1.122,97.4148,-7.284,-5.998,27.12,0,109.2,13.5,-6.56,284.8
"2016-02-04 01:21:00",1343613,6.653,321.6,6.335,1.176,1.21,97.41593,-7.281,-6.015,27.15,0,109.2,13.5,-6.55,283.6
"2016-02-04 01:21:30",1343614,6.64,320.9,5.975,1.207,1.25,97.41536,-7.282,-5.969,27.09,0,109.2,13.5,-6.56,282.9
"2016-02-04 01:22:00",1343615,6.502,319.1,6.124,1.176,0.878,97.41617,-7.28,-6.001,27.02,0,109.2,13.5,-6.55,281.1
"2016-02-04 01:22:30",1343616,6.414,319.9,6.225,1.192,0.942,97.41641,-7.279,-6.02,26.94,0,109.2,13.5,-6.55,281.9
"2016-02-04 01:23:00",1343617,6.721,320.4,6.929,1.182,1.343,97.41752,-7.277,-5.99,26.97,0,109.2,13.5,-6.55,282.4
"2016-02-04 01:23:30",1343618,6.846,318.9,5.858,1.17,1.229,97.41807,-7.275,-5.981,26.94,0,109.2,13.49,-6.55,280.9
"2016-02-04 01:24:00",1343619,6.798,319.5,6.518,1.225,0.945,97.41944,-7.272,-5.982,26.88,0,109.2,13.49,-6.55,281.5
"2016-02-04 01:24:30",1343620,7.162,318.1,6.375,1.185,0.952,97.4183,-7.275,-5.982,26.77,0,109.2,13.49,-6.55,280.1
"2016-02-04 01:25:00",1343621,7.169,317.7,6.398,1.203,1.199,97.4197,-7.271,-5.991,26.69,0,109.2,13.49,-6.54,279.7
"2016-02-04 01:25:30",1343622,7.015,315.6,6.261,1.214,1.338,97.41829,-7.275,-6.003,26.62,0,109.2,13.49,-6.55,277.6
"2016-02-04 01:26:00",1343623,7.446,314.9,5.804,1.227,1.206,97.41998,-7.27,-5.969,26.56,0,109.2,13.49,-6.54,276.9
"2016-02-04 01:26:30",1343624,7.094,314,6.101,1.223,1.195,97.41942,-7.272,-5.97,26.39,0,109.2,13.49,-6.55,276.0
"2016-02-04 01:27:00",1343625,7.607,310.7,6.291,1.165,0.838,97.42055,-7.269,-6.004,26.28,0,109.2,13.49,-6.54,272.7
"2016-02-04 01:27:30",1343626,7.456,309.8,6.213,1.15,1.016,97.42083,-7.268,-5.99,26.26,0,109.2,13.49,-6.54,271.8
"2016-02-04 01:28:00",1343627,7.15,311.8,6.447,1.281,0.97,97.42055,-7.269,-5.989,26.28,0,109.2,13.5,-6.54,273.8
"2016-02-04 01:28:30",1343628,7.598,313.3,6.318,1.224,0.826,97.42112,-7.267,-5.947,26.3,0,109.1,13.5,-6.54,275.3
"2016-02-04 01:29:00",1343629,7.413,314.2,6.461,1.211,1.263,97.4214,-7.267,-5.964,26.28,0,109.2,13.5,-6.54,276.2
"2016-02-04 01:29:30",1343630,7.292,317.6,7.629,1.286,0.807,97.4231,-7.262,-5.971,26.23,0,109.2,13.5,-6.54,279.6
"2016-02-04 01:30:00",1343631,7.302,316.2,6.818,1.184,1.142,97.42197,-7.265,-5.98,26.25,0,109.2,13.5,-6.54,278.2
"2016-02-04 01:30:30",1343632,7.424,315.1,6.427,1.321,1.279,97.42339,-7.262,-5.985,26.28,0,109.2,13.5,-6.54,277.1
"2016-02-04 01:31:00",1343633,7.288,315,6.271,1.233,1.08,97.42396,-7.26,-5.968,26.26,0,109.2,13.5,-6.53,277.0
"2016-02-04 01:31:30",1343634,6.797,316.7,6.282,1.192,0.991,97.42538,-7.257,-5.986,26.26,0,109.2,13.5,-6.53,278.7
"2016-02-04 01:32:00",1343635,6.607,316.3,6.41,1.209,1.249,97.42623,-7.254,-5.964,26.34,0,109.2,13.5,-6.53,278.3
"2016-02-04 01:32:30",1343636,6.847,316.1,6.363,1.199,0.912,97.42679,-7.253,-5.959,26.33,0,109.2,13.51,-6.53,278.1
"2016-02-04 01:33:00",1343637,6.947,315.2,6.284,1.162,1.31,97.42566,-7.256,-5.949,26.26,0,109.2,13.51,-6.53,277.2
"2016-02-04 01:33:30",1343638,6.92,315.9,6.212,1.229,1.104,97.42566,-7.256,-5.94,26.14,0,109.2,13.51,-6.53,277.9
"2016-02-04 01:34:00",1343639,6.826,315.8,6.285,1.178,1.021,97.42736,-7.252,-5.969,26.03,0,109.2,13.51,-6.53,277.8
"2016-02-04 01:34:30",1343640,6.732,316.5,6.179,1.238,1.09,97.42651,-7.254,-5.963,25.99,0,109.1,13.51,-6.53,278.5
"2016-02-04 01:35:00",1343641,6.706,315.5,6.565,1.262,1.292,97.42764,-7.251,-5.952,25.88,0,109.2,13.51,-6.52,277.5
"2016-02-04 01:35:30",1343642,6.747,314.2,5.89,1.169,1.318,97.42822,-7.249,-5.948,25.82,0,109.2,13.51,-6.52,276.2
"2016-02-04 01:36:00",1343643,7.17,316.1,6.443,1.2,1.068,97.42879,-7.248,-5.932,25.78,0,109.2,13.51,-6.52,278.1
"2016-02-04 01:36:30",1343644,6.853,316.7,6.979,1.216,0.615,97.42879,-7.248,-5.969,25.75,0,109.2,13.51,-6.52,278.7
"2016-02-04 01:37:00",1343645,6.937,316.7,6.53,1.232,1.04,97.42934,-7.247,-5.943,25.71,0,109.2,13.51,-6.52,278.7
"2016-02-04 01:37:30",1343646,7.102,316.9,6.48,1.242,1.252,97.42934,-7.247,-5.933,25.68,0,109.2,13.51,-6.52,278.9
"2016-02-04 01:38:00",1343647,7.03,316.3,6.167,1.208,0.972,97.42963,-7.246,-5.927,25.68,0,109.2,13.51,-6.52,278.3
"2016-02-04 01:38:30",1343648,7.164,318.1,5.788,1.163,1.3,97.42963,-7.246,-5.91,25.72,0,109.2,13.51,-6.52,280.1
"2016-02-04 01:39:00",1343649,7.215,318.5,6.437,1.118,1.127,97.43275,-7.238,-5.949,25.67,0,109.2,13.51,-6.51,280.5
"2016-02-04 01:39:30",1343650,7.023,316.1,6.191,1.259,0.929,97.43132,-7.241,-5.953,25.64,0,109.2,13.51,-6.52,278.1
"2016-02-04 01:40:00",1343651,7.089,315.7,6.231,1.194,1.305,97.43557,-7.231,-5.927,25.64,0,109.2,13.5,-6.50,277.7
"2016-02-04 01:40:30",1343652,7.001,315.8,6.256,1.174,1.241,97.43472,-7.233,-5.911,25.66,0,109.1,13.5,-6.51,277.8
"2016-02-04 01:41:00",1343653,6.959,313.3,6.414,1.172,1.25,97.43525,-7.232,-5.94,25.65,0,109.2,13.5,-6.50,275.3
"2016-02-04 01:41:30",1343654,6.81,316.1,5.989,1.229,0.867,97.43639,-7.229,-5.905,25.65,0,109.2,13.5,-6.50,278.1
"2016-02-04 01:42:00",1343655,6.864,313.5,5.982,1.177,1.103,97.43747,-7.226,-5.914,25.62,0,109.2,13.5,-6.50,275.5
"2016-02-04 01:42:30",1343656,6.813,313.4,6.224,1.207,1.372,97.44137,-7.216,-5.944,25.56,0,109.2,13.5,-6.49,275.4
"2016-02-04 01:43:00",1343657,6.621,312.9,6.167,1.218,1.092,97.44504,-7.207,-5.892,25.52,0,109.2,13.5,-6.48,274.9
"2016-02-04 01:43:30",1343658,6.85,311.8,6.452,1.226,0.816,97.44559,-7.205,-5.921,25.47,0,109.2,13.5,-6.48,273.8
"2016-02-04 01:44:00",1343659,7.102,315.1,6.238,1.219,1.025,97.44755,-7.2,-5.918,25.48,0,109.2,13.5,-6.47,277.1
"2016-02-04 01:44:30",1343660,6.985,315.4,6.068,1.221,0.799,97.44809,-7.199,-5.904,25.47,0,109.2,13.5,-6.47,277.4
"2016-02-04 01:45:00",1343661,7.058,314.8,6.245,1.181,0.965,97.45311,-7.186,-5.913,25.45,0,109.2,13.5,-6.46,276.8